Temp
17 17 17 17 18 18 18 18 19 19 19 19 19 19 20 20 19 18 24 28 28 26 26 27 28 30 31 34 35 35 34 35 37 37 38 39 36 39 39 37 38 38 36 36 33
17 17 17 17 18 18 18 18 19 19 19 20 19 19 19 19 17 24 27 27 26 26 26 30 31 31 33 33 34 34 34 35 38 38 37 38 37 37 37 37 38 38 37 34 34
17 17 17 17 18 18 18 19 19 19 19 20 19 19 19 18 24 31 26 26 26 25 29 31 32 33 33 34 35 34 33 37 37 36 36 37 37 37 36 36 38 38 38 37 34
17 17 17 18 19 19 19 19 19 19 19 20 19 19 19 19 30 28 26 25 25 25 29 32 33 32 33 34 35 33 35 36 36 36 35 35 36 36 36 37 39 39 38 38 36
17 17 17 17 18 19 19 19 19 19 19 20 19 19 18 26 30 25 25 25 24 25 30 32 32 33 33 34 35 34 35 36 35 35 35 35 35 35 36 37 38 38 37 38 38
16 17 16 17 17 17 18 19 20 20 20 20 19 19 20 27 28 27 26 25 27 28 30 32 33 34 34 33 34 35 35 35 35 35 35 34 34 35 36 37 37 37 37 38 39
16 17 17 18 18 18 18 18 19 20 21 21 19 18 25 29 27 27 27 27 29 29 32 31 32 32 33 32 34 34 33 34 34 34 34 34 33 34 36 37 36 36 37 38 38
16 16 17 18 18 18 18 17 19 21 21 20 19 18 27 27 27 27 28 28 29 29 30 31 31 31 32 34 32 32 33 32 35 35 34 34 33 36 37 36 35 36 37 37 38
16 16 18 18 19 19 18 18 18 19 20 19 18 22 29 26 27 28 28 29 29 29 29 29 30 30 32 31 31 32 32 33 34 35 34 33 33 36 37 35 35 36 37 37 37
16 17 18 19 20 20 18 18 18 17 17 18 22 25 29 29 28 28 28 29 29 29 29 29 30 30 31 31 31 33 33 33 34 34 33 33 33 36 36 35 35 35 36 37 36
16 17 19 19 20 20 18 17 24 24 26 27 28 28 29 29 28 29 28 29 29 29 28 29 29 30 31 32 33 33 33 33 34 35 32 33 34 34 35 35 35 35 35 35 34
16 18 19 20 21 21 21 26 24 23 25 29 29 30 28 28 28 30 28 28 28 28 29 30 29 31 32 33 32 31 31 31 33 34 32 32 32 34 35 35 35 35 35 33 33
16 18 20 20 21 21 25 24 23 23 25 29 29 29 29 29 29 29 29 29 29 28 30 29 31 32 31 31 30 30 30 31 32 33 32 31 32 33 34 35 33 32 32 32 31
16 17 19 21 21 24 26 24 24 23 26 28 29 30 30 30 28 29 29 29 29 29 30 30 32 31 30 30 31 29 32 31 31 31 30 32 30 33 34 32 31 31 32 32 31
16 17 19 19 19 25 24 24 23 24 27 28 29 29 30 29 29 29 29 29 28 29 29 29 30 30 30 30 31 30 32 31 30 30 30 32 30 33 34 31 31 30 30 30 30
17 17 19 21 21 24 24 24 23 25 26 27 28 28 29 29 29 29 29 29 30 29 30 30 32 31 31 31 31 31 30 30 30 30 29 30 31 32 33 32 31 29 29 29 29
17 17 18 18 24 23 23 26 26 28 28 26 26 27 27 27 28 28 28 28 28 27 27 29 29 30 29 28 30 29 28 27 27 28 28 31 31 32 29 31 30 28 28 28 29
17 18 20 21 23 23 24 27 25 27 26 27 26 26 26 26 28 27 27 27 28 27 28 27 27 29 29 28 28 29 28 27 26 27 29 31 30 28 28 28 28 28 27 27 28
17 21 22 23 22 22 25 27 26 25 25 24 26 25 26 26 25 26 27 26 26 25 25 27 26 26 26 27 27 27 27 28 25 27 27 29 27 27 27 26 26 26 26 26 26
13 22 24 22 22 23 26 21 25 24 24 24 24 25 24 25 24 25 25 25 25 24 25 25 24 26 26 26 27 26 28 25 26 23 23 26 25 22 24 25 26 26 26 25 25
15 24 23 22 23 26 27 25 24 24 23 23 23 23 23 23 23 23 24 24 23 23 24 24 23 25 25 25 26 26 25 26 25 23 23 23 24 21 22 18 22 25 24 24 24
20 25 23 22 26 25 25 23 15 23 23 22 22 22 22 22 22 22 22 23 22 22 22 24 21 22 23 24 24 24 25 24 21 22 24 25 25 24 21 21 21 23 23 23 24
21 24 23 23 25 25 22 22 22 22 22 22 22 22 22 21 20 21 21 22 21 21 21 21 21 21 23 24 24 23 24 24 24 22 21 20 21 22 23 23 22 23 23 23 22
21 24 25 24 23 21 21 22 22 21 21 21 21 21 21 21 22 20 21 22 21 21 17 19 20 20 21 17 18 21 22 23 22 21 22 22 23 20 21 22 22 22 22 22 22
22 21 19 23 23 20 20 21 21 21 20 21 20 20 20 19 21 21 22 21 21 20 19 20 18 20 21 22 22 21 21 22 22 22 21 22 19 19 20 22 22 21 21 21 22
19 19 21 21 19 20 16 21 20 20 19 20 19 20 19 19 20 19 20 20 19 20 20 20 18 20 19 21 22 20 21 21 22 22 22 22 22 24 24 22 22 22 21 21 21
17 17 18 18 21 20 21 20 19 18 19 19 19 18 18 19 19 19 19 19 19 18 18 17 18 18 18 20 20 19 21 21 21 22 21 20 22 22 22 21 21 21 21 20 20
Height
828 824 820 817 813 809 806 803 801 798 796 795 794 792 791 789 786 785 779 771 771 773 775 776 776 773 771 764 759 759 773 769 753 748 742 725 745 730 730 740 735 733 736 742 750
828 824 820 816 811 807 804 801 798 796 794 793 792 791 789 787 785 777 769 768 769 771 774 771 770 769 766 762 759 765 769 758 733 732 741 733 741 738 742 740 736 734 736 740 740
827 823 818 813 809 804 801 798 795 793 792 790 790 789 787 786 779 756 760 764 767 769 770 767 765 764 765 755 755 757 767 740 737 743 742 741 739 736 745 746 732 732 731 738 744
826 821 815 809 804 800 797 794 791 790 788 787 787 787 786 787 772 758 761 762 766 770 768 764 761 765 764 761 750 763 749 745 741 742 750 750 740 742 741 739 723 723 731 735 741
824 818 812 806 801 797 793 790 787 785 784 784 785 786 787 778 763 762 763 764 767 769 765 763 763 761 764 753 750 753 749 741 744 744 746 744 747 744 741 732 730 729 734 734 733
823 816 809 803 798 793 789 786 783 781 780 780 783 785 786 776 762 763 764 766 766 767 764 761 758 754 753 754 752 742 745 745 741 744 744 752 747 742 736 730 734 732 733 729 728
821 814 807 801 795 790 786 783 780 778 778 778 781 783 777 765 762 763 764 764 764 764 761 761 757 758 756 759 744 745 756 747 743 742 746 742 754 746 728 727 733 734 731 729 728
820 813 805 798 791 787 783 782 780 777 776 778 780 784 767 761 762 763 763 763 763 764 762 761 761 761 757 747 752 757 753 761 733 736 739 746 758 728 723 730 736 732 729 729 730
819 811 804 796 791 787 784 783 781 779 778 778 781 779 760 760 760 760 761 761 764 765 766 767 764 763 757 765 764 754 764 752 739 729 739 746 750 726 717 729 736 731 727 728 730
818 811 804 798 793 788 785 784 782 781 781 782 778 776 758 755 757 758 760 760 762 764 765 765 763 764 759 760 771 753 751 744 740 734 743 743 747 726 722 731 735 732 729 726 732
817 810 804 799 794 790 785 783 780 779 771 766 763 760 755 755 758 756 760 760 761 762 770 761 768 765 756 747 742 736 744 742 730 725 745 745 739 731 725 729 731 729 730 732 736
816 808 803 799 795 791 786 782 787 788 779 760 760 754 758 758 756 752 758 762 762 767 760 760 767 748 739 738 743 748 754 752 738 729 743 746 743 730 725 726 727 727 727 738 745
815 808 802 798 793 790 786 788 787 786 778 758 757 755 755 755 754 751 754 754 757 763 756 759 745 734 744 743 756 752 755 750 748 733 741 747 743 734 723 719 727 735 738 745 749
815 808 802 797 795 787 783 786 785 784 774 765 757 753 751 750 756 751 750 751 752 755 750 747 735 740 748 749 745 760 739 745 745 749 758 734 758 727 723 736 740 743 743 744 746
813 807 802 798 796 786 789 785 784 783 777 762 758 755 748 752 752 747 750 748 754 748 750 747 739 743 744 746 739 750 734 738 747 749 748 738 753 722 713 737 742 745 748 748 747
811 804 800 798 793 788 787 785 784 783 782 768 761 763 755 751 753 747 749 747 741 748 740 737 722 728 734 732 734 736 743 743 742 746 762 741 737 732 715 720 733 747 752 751 750
808 802 799 798 792 789 786 780 779 770 764 774 776 768 764 762 758 756 755 752 755 760 755 736 737 732 740 747 739 747 754 769 769 763 758 727 735 726 729 722 733 749 753 752 753
806 801 798 796 792 788 784 775 786 771 773 769 772 769 772 767 757 762 759 757 747 753 750 748 753 732 736 749 748 741 748 760 771 758 739 719 732 736 734 738 742 748 752 755 757
803 798 794 793 790 787 780 773 774 779 780 781 772 774 766 768 773 764 759 760 757 763 769 752 752 746 750 748 749 750 757 739 762 748 752 737 738 743 742 748 750 751 755 762 764
808 797 788 790 787 784 773 793 778 781 783 780 785 777 781 773 778 768 767 761 768 770 766 759 769 750 751 754 748 753 739 768 760 785 783 758 760 774 761 756 750 752 757 764 767
807 790 787 787 784 773 771 781 784 784 788 789 784 786 782 783 783 780 776 769 776 778 769 768 772 757 754 758 753 753 757 756 759 780 776 779 764 769 774 790 763 759 767 769 771
804 786 788 787 778 776 777 789 804 787 788 789 789 786 788 787 788 784 781 773 782 782 783 767 777 773 761 753 757 755 755 761 783 775 765 759 761 757 768 776 780 773 777 775 776
804 791 789 786 781 779 790 791 793 793 792 790 789 789 786 792 798 784 785 782 787 785 785 780 777 780 763 753 753 766 757 757 762 774 781 785 777 770 770 773 774 775 774 776 780
808 790 782 786 791 795 794 790 793 794 795 795 791 791 792 791 783 791 784 781 788 787 796 793 786 781 777 799 789 777 767 764 766 779 771 770 762 783 781 777 773 775 777 779 780
806 802 807 791 789 799 798 794 794 794 795 794 792 794 793 797 785 782 778 780 780 784 790 790 793 779 772 766 768 774 772 766 770 767 774 766 783 786 781 772 774 778 781 782 781
815 813 804 799 804 801 806 791 798 796 801 794 800 792 796 799 793 792 788 789 792 785 786 785 790 781 782 766 765 775 770 767 767 767 766 765 767 756 760 769 775 777 778 781 783
823 821 818 805 796 800 790 796 799 804 800 799 801 801 799 795 795 796 795 793 792 792 793 797 791 788 787 771 774 778 764 763 762 761 766 773 764 762 766 773 776 776 779 781 782
Wind_Speed
20 20 22 21 21 20 17 15 13 12 11 10 10 9 10 12 14 11 14 10 15 16 14 14 16 16 15 15 13 9 13 14 17 12 10 4 5 14 2 6 10 2 5 7 9
23 23 23 23 22 21 19 17 14 13 12 11 10 11 11 13 14 22 23 15 13 14 15 19 16 16 14 14 10 13 12 18 10 8 3 5 5 9 6 12 14 10 9 3 6
26 26 26 26 25 22 21 18 16 15 13 12 11 10 10 10 15 4 8 19 16 20 17 16 16 15 17 14 17 15 17 18 6 6 10 14 11 7 12 14 11 11 6 9 7
30 31 31 29 26 24 21 20 17 16 15 13 10 9 9 7 5 6 3 14 17 18 17 17 13 16 17 17 16 19 17 14 13 5 11 12 13 16 9 15 15 2 3 6 11
33 34 35 30 27 24 22 20 18 17 16 13 9 7 5 9 12 3 5 11 14 18 18 15 16 16 17 15 16 17 16 13 11 13 12 13 14 16 16 13 13 10 8 13 11
34 36 35 30 27 24 21 19 18 17 16 11 8 7 8 15 3 3 9 11 16 19 17 16 11 14 17 15 15 13 14 19 10 14 14 15 17 16 18 12 13 9 12 11 12
36 38 33 30 28 24 21 16 13 11 9 6 9 8 11 15 1 3 11 15 14 16 14 17 15 10 10 17 15 14 17 16 16 14 15 10 18 19 16 13 9 14 12 9 5
37 38 32 31 25 20 13 8 10 6 1 5 10 7 7 1 3 7 10 15 12 13 12 9 12 14 18 14 8 14 17 16 18 19 15 13 17 19 17 15 12 14 14 8 8
38 38 32 26 19 16 8 7 10 9 7 10 7 9 8 1 6 10 12 13 12 11 10 6 12 15 16 16 14 16 15 19 15 6 10 14 15 19 11 8 11 11 12 10 6
38 35 28 22 20 16 7 4 3 5 3 5 8 6 6 3 4 4 12 12 12 11 11 12 10 15 15 14 16 17 18 17 12 15 12 14 17 16 8 13 12 12 13 9 6
38 36 25 21 16 13 10 4 4 6 10 8 6 8 4 5 6 7 11 12 14 13 15 16 13 17 20 20 21 22 14 14 10 11 7 15 15 14 12 13 12 14 9 8 1
38 34 23 21 11 11 9 10 7 7 7 1 2 3 0 4 6 12 15 12 16 16 19 16 17 19 17 18 15 18 14 17 15 11 9 15 18 16 13 12 15 13 10 4 4
38 34 21 20 9 7 6 12 7 5 7 6 2 3 3 4 2 7 12 16 15 19 19 20 17 14 20 14 15 17 18 16 16 12 10 16 18 14 16 9 5 1 3 5 2
37 34 18 19 5 10 6 14 8 2 6 4 3 4 1 2 6 1 7 17 19 21 20 21 20 15 13 17 16 18 17 16 16 14 13 21 14 20 18 12 12 9 8 5 3
37 34 12 11 11 8 12 14 6 4 4 4 3 5 2 6 7 9 5 11 20 19 16 21 22 20 19 17 17 16 17 13 16 17 16 16 9 17 21 20 16 8 5 5 9
37 29 10 3 10 11 14 11 5 7 2 3 2 7 9 1 2 5 6 8 10 18 22 21 19 15 16 17 13 10 13 17 13 15 16 21 17 12 13 22 18 11 7 6 8
38 20 6 7 8 17 13 8 7 4 4 4 5 8 11 4 7 6 5 11 12 11 17 21 21 12 5 12 12 13 14 11 14 14 17 18 19 12 11 12 16 13 10 8 6
37 10 4 6 15 14 11 9 6 6 3 3 7 11 7 8 8 7 10 13 9 12 15 15 17 20 14 17 18 14 18 15 20 14 14 14 21 10 15 12 12 11 10 8 7
30 6 7 7 15 10 8 8 6 5 4 7 11 6 5 5 4 15 15 11 8 11 13 12 6 5 5 5 10 16 14 9 10 18 14 9 10 10 13 13 14 13 10 7 6
19 9 2 15 10 10 8 4 2 3 6 6 10 2 9 10 10 12 8 6 3 3 10 10 9 13 10 9 10 12 8 8 10 13 18 15 7 5 2 5 10 12 9 7 3
8 5 8 12 7 8 5 5 2 4 7 4 6 8 11 10 8 11 9 5 6 11 11 12 9 9 8 10 14 8 12 14 13 7 12 13 10 7 4 3 11 10 7 5 3
8 5 10 11 6 2 4 4 2 4 2 5 5 6 7 7 11 11 9 7 8 11 11 9 7 13 15 4 13 11 12 1 6 13 13 13 12 12 13 9 3 4 2 6 6
6 5 5 13 3 3 2 2 3 3 2 3 4 3 4 8 5 4 5 4 7 10 9 11 7 11 17 17 13 13 16 14 13 14 18 11 3 4 4 3 4 1 3 2 5
5 3 2 2 2 6 3 3 4 3 8 5 7 4 9 10 8 7 8 2 2 10 5 7 11 14 12 4 8 12 4 10 10 11 18 18 18 9 7 9 4 2 3 5 4
2 4 4 4 3 6 4 2 7 4 5 4 5 6 7 8 11 12 10 7 8 8 8 7 14 15 14 12 7 12 15 13 13 14 14 14 3 16 17 16 4 2 7 8 9
5 4 2 7 4 6 4 2 6 2 4 5 5 10 6 10 11 14 14 12 9 4 9 7 11 12 12 13 14 11 14 13 15 14 14 13 13 7 8 3 5 7 6 6 9
4 4 5 2 5 6 2 4 4 3 6 5 8 7 10 9 10 11 12 12 13 11 10 7 10 10 13 5 8 13 16 15 17 16 13 12 10 10 3 3 5 6 8 9 8
Wind_Direction
1 357 352 348 346 341 333 329 325 321 305 304 302 299 302 303 298 276 252 246 210 242 183 198 214 223 234 239 237 244 262 251 252 246 244 235 245 245 268 266 233 198 312 42 127
2 356 350 344 338 335 329 321 313 311 305 290 291 297 300 305 286 264 246 243 229 205 198 201 208 213 221 227 214 232 232 251 293 332 293 288 240 272 247 249 226 192 132 70 143
4 357 349 341 334 329 324 318 308 302 301 287 280 291 301 316 281 208 199 223 224 195 215 205 211 213 229 224 219 227 248 276 322 267 283 280 262 252 252 256 251 231 135 149 189
1 356 349 341 334 329 322 317 306 296 292 288 264 274 296 277 294 79 144 183 187 189 222 217 225 215 233 233 234 241 259 263 277 228 251 255 265 269 261 263 275 208 311 265 181
359 355 349 344 338 331 323 316 307 295 287 283 245 245 280 232 259 127 157 176 185 191 218 215 224 225 239 245 239 245 251 262 261 254 247 264 256 265 262 251 263 259 258 245 213
358 354 350 345 338 331 321 316 308 294 284 271 217 208 245 258 64 156 171 174 181 197 211 221 228 233 258 273 255 248 256 260 241 246 240 244 253 247 254 257 246 251 244 240 220
357 355 351 344 337 330 323 320 317 313 293 246 188 190 257 254 353 219 192 191 192 207 217 225 242 258 237 262 259 257 261 257 245 239 244 237 254 245 243 253 234 238 229 243 264
358 356 352 345 339 336 336 358 8 2 15 159 172 215 265 102 265 228 204 200 205 217 245 244 239 261 253 272 270 244 245 254 233 211 224 231 258 223 227 221 237 243 228 210 219
358 357 356 355 359 356 357 37 45 46 104 137 169 224 259 207 213 215 203 203 204 206 220 261 246 239 238 249 244 225 246 227 246 184 238 207 249 252 174 194 240 247 236 215 190
357 357 359 360 2 3 354 343 341 82 81 214 273 224 231 36 71 205 200 221 189 201 215 216 220 226 233 221 236 227 216 248 237 168 219 230 236 269 178 215 223 234 235 224 212
357 355 355 353 359 356 340 233 240 190 234 323 330 307 278 260 179 182 189 208 201 204 220 207 218 221 232 228 249 274 282 292 248 232 214 239 248 235 231 228 225 230 215 215 83
357 353 348 351 353 348 351 33 29 325 297 270 210 253 230 316 255 213 168 203 210 225 221 236 231 250 239 255 242 254 259 257 262 253 220 249 242 248 244 227 230 229 175 125 194
354 351 344 344 308 316 13 17 325 306 258 145 84 346 24 247 251 225 190 223 223 230 237 236 235 231 246 242 244 241 248 249 253 217 247 262 255 224 231 199 110 169 82 171 187
352 349 341 337 283 333 30 350 335 265 259 126 167 95 223 246 226 326 256 244 232 241 241 251 240 253 250 254 240 248 237 253 265 245 241 206 251 217 209 180 184 176 193 156 111
349 346 330 338 312 354 334 336 326 230 250 69 57 331 267 325 345 157 288 240 245 245 241 251 238 245 251 250 239 246 269 225 247 255 260 242 241 292 172 181 177 169 130 130 85
345 342 323 292 259 328 323 319 259 231 102 127 313 339 311 35 7 313 242 233 255 255 259 251 267 230 259 239 253 284 263 258 243 246 243 244 249 234 217 184 147 141 133 99 85
342 339 287 304 323 320 316 260 245 281 134 79 340 323 307 310 296 312 293 228 245 230 237 236 250 218 244 258 227 238 240 241 228 228 243 245 236 252 91 85 136 139 130 106 98
340 339 285 269 318 315 294 252 260 71 32 25 304 302 286 4 292 300 281 266 204 293 281 266 237 201 180 245 259 232 232 244 250 247 259 279 229 136 115 119 122 120 103 102 83
343 316 261 326 320 302 267 247 25 23 4 325 301 254 239 228 300 299 279 287 14 339 313 289 287 189 314 264 263 252 259 277 309 275 263 239 104 126 142 146 150 139 120 98 80
331 292 243 327 310 271 257 9 358 11 318 302 292 355 312 322 317 310 309 47 323 316 329 315 281 196 164 249 227 252 301 254 240 270 271 267 203 324 290 161 160 132 122 95 25
294 275 41 338 278 249 298 50 296 76 328 309 325 296 295 309 299 300 290 81 30 315 309 295 276 250 261 222 248 197 236 231 249 215 251 265 278 136 153 53 343 65 59 51 335
291 276 9 335 247 322 358 9 26 278 226 281 287 283 288 311 289 283 282 338 28 314 291 334 305 272 233 292 322 302 283 4 288 223 234 267 260 140 156 155 211 58 81 61 16
304 302 16 307 312 20 101 230 293 271 298 288 276 242 320 287 297 227 301 34 330 300 1 352 249 265 245 213 190 248 259 254 253 265 269 258 246 335 57 171 143 337 38 17 346
287 292 123 119 85 319 355 181 249 170 282 280 289 268 275 267 235 263 281 200 227 295 30 310 279 275 287 132 225 282 258 279 278 262 259 254 261 212 224 265 199 240 305 319 335
291 52 4 321 48 327 286 314 277 250 214 250 241 252 300 293 284 279 274 301 272 221 253 255 275 277 280 289 278 283 283 278 246 259 267 264 302 193 213 227 146 298 288 298 304
320 343 338 278 301 275 146 231 306 305 273 272 254 305 285 280 286 308 316 296 299 316 267 243 265 276 285 272 267 275 275 268 262 266 269 275 274 289 290 39 283 251 265 290 305
13 250 273 210 242 269 17 352 325 314 269 297 315 307 284 320 337 312 298 292 284 278 286 289 272 274 270 326 298 267 258 257 254 245 251 260 273 22 47 233 268 304 301 286 314